Weather in White Plains

United States     41°01′25″N   73°45′48″W
temp.,
°C
wind,
m/s
gust,
m/s
humid.,
%
clouds,
%
prec.,
mm/h
press.,
hPa
HPBL,
m
18 may, tue
tue1823:00+18sw23465 0.1 102654
02:00+16w11567 0.1 102619
05:00+15w1267100 0.0 102524
08:00+18w3553100 0.0 1027296
11:00+24wnw35345 0.0 10261736
14:00+26nw452891 0.0 10242757
17:00+25wnw563526 0.0 10241868
20:00+21w4105113 0.0 1024403
19 may, wed
wed1923:00+19wnw376248 0.0 1025188
02:00+17wnw266813 0.0 1025146
05:00+16wnw267385 0.0 1025161
08:00+19nw23605 0.0 1026216
11:00+25n24400 0.0 10261200
14:00+28n373411 0.0 10252251
17:00+28n353679 0.0 10242098
20:00+23ene125886 0.1 102539
20 may, thu
thu2023:00+19ene258125 0.4 1026122
02:00+16e247871 0.4 1027153
05:00+15ene237685 0.0 1029106
08:00+18e235468 0.0 1031384
11:00+21ese333936 0.0 1031725
14:00+23ese3237100 0.0 1031953
17:00+22se333790 0.0 1030615
20:00+19s464169 0.0 1030371
21 may, fri
fri2123:00+16s24505 0.0 1032280
02:00+15s2361100 0.0 1032151
05:00+14ssw126871 0.0 103259
08:00+17wsw2455100 0.0 1032373
11:00+22wsw3439100 0.0 1031649
14:00+23w3449100 0.0 1030650
17:00+20sw1260100 0.0 1029152
20:00+18ssw2266100 0.1 102992
22 may, sat
sat2223:00+18sw2467100 0.0 1027199
02:00+16sw2589100 0.6 1026217
05:00+16sw2693100 0.5 1024211
08:00+16sw2793100 0.9 1023242
11:00+17sw3689100 0.2 1022271
14:00+21ssw2465100 0.2 1019565
17:00+22ssw2568100 0.4 1016332
20:00+18sse2388100 1.5 101697